Погода в Барсово

Россия / Ханты-Мансийский автономный округ - Югра     61°15′11″N   73°11′19″E
темп.,
°C
ветер,
м/с
пор.,
м/с
влажн.,
%
обл.,
%
осадки,
мм/ч
давл.,
гПа
погр.,
м
2 июля, сб
сб223:00+13с61361100 0.1 1005596
02:00+11ссз5126295 0.0 1005421
05:00+10ссз4106995 0.0 1005347
08:00+15ссз56525 0.0 1005858
11:00+17с684762 0.0 10051656
14:00+18с684599 0.0 10051933
17:00+15ссз61066100 0.0 1006639
20:00+11ссз41086100 0.1 1006457
3 июля, вс
вс323:00+11ссз3788100 0.1 1006413
02:00+10ссз3785100 0.0 1006442
05:00+10сз3686100 0.0 1005547
08:00+12ссз457095 0.0 1006898
11:00+14с4567100 0.1 10061081
14:00+13с567099 0.1 10071017
17:00+11с567597 0.1 1008658
20:00+10ссз3875100 0.0 1008424
4 июля, пн
пн423:00+10с4979100 0.0 1009380
02:00+10ссв3974100 0.0 1009445
05:00+10ссв4877100 0.0 1010543
08:00+11с477296 0.0 1010516
11:00+14ссв465397 0.0 10111083
14:00+16с554799 0.0 10101925
17:00+15ссв454734 0.0 10101497
20:00+13с376281 0.0 1011258
5 июля, вт
вт523:00+11ссз2365100 0.0 101164
02:00+8с33725 0.0 101046
05:00+10ссз2467100 0.0 1010106
08:00+15с344890 0.0 1009723
11:00+16с444243 0.0 10091518
14:00+18с334164 0.0 10082010
17:00+16с455380 0.0 1009592
20:00+14с2565100 0.0 1009156
6 июля, ср
ср623:00+12с2472100 0.0 1010111
02:00+12с2377100 0.0 101064
05:00+12ссв237788 0.0 1011116
08:00+17с225452 0.0 1011669
11:00+20с2240100 0.0 10112059
14:00+20с2242100 0.0 10121572
17:00+20ссв114457 0.0 1012920
20:00+17зсз226022 0.0 101327